FENGYUN 1C DEB *

Satellite information

Favourite Embed

Satellite Type and Status

DEBRISIN ORBIT

Key statistics

Satellite FENGYUN 1C DEB * at a glance.

Uptime

9715

Days in orbit

Revolutions

≈ 13.7

Per day

Orbit

SSO

Sun Synchronous Orbit

Inclination

98.7

Latest

Satellite identification and parameters

Extended collection of information and parameters for FENGYUN 1C DEB *.

Object identification

Identified? True

Debris? True

Object name: FENGYUN 1C DEB *

International designator: 1999-025EZT

Object number (NORAD): 46993

Object ID (CCSDS): 46993

Country: PEOPLES REPUBLIC OF CHINA (PRC)

Current information (Y/N): Y

RCS size: SMALL

Orbital parameters

Period: 105.175 minutes

Inclination: 98.7232 deg

SMA: 7380.783 km

Apoapsis: 1196.356 km

Periapsis: 808.94 km

RAAN: 102.3256 deg

Eccentricy: 0.0262449

Argument of periapsis: 307.8097 deg

Mean anomaly: 66.0897 deg

Mean motion: 13.69143946 rev/day

Mean motion (dot): 0.00000699 rev/day2

B* drag term: 0.00067098 1/REarth

Two-line elements (TLE)

Creation date: Dec. 9, 2025, 11:56 p.m.

Reference frame: TEME

Reference center: EARTH

Epoch: Dec. 9, 2025, 1:52 p.m. UTC

TLE line 0: 0 FENGYUN 1C DEB *

TLE line 1: 1 46993U 99025EZT 25343.57840972 .00000699 00000-0 67098-3 0 9992

TLE line 2: 2 46993 98.7232 102.3256 0262449 307.8097 66.0897 13.69143946602149

Live tracking on map

Real-time ground track for satellite FENGYUN 1C DEB *.

In-orbit conjunctions

A list of the most updated potential collisions computed for object FENGYUN 1C DEB *.

Target Orbit TCA Probability of collision Miss distance Type
CZ-6A DEB LEO 2024-12-13 23:45:01 0.0004766801 184.0 (m) DEBRIS

Associated space launch

Chinese polar orbiting meteorological satellite

FENGYUN 1C DEB * was lifted into orbit during the mission ‘Long March 4B | Feng Yun 1C’, on board a Long March 4B space rocket.

The launch took place on May 10, 1999, 1:33 a.m. from Launch Complex 7.

For more information about the launch, click the button.

Launch to space Long March 4B | Feng Yun 1C
Long March 4B | Feng Yun 1C

Agency: N/A

Status: Launch Successful

Launch date: May 10, 1999, 1:33 a.m. UTC

Rocket: Long March 4B

Launch pad: Launch Complex 7

Location: Taiyuan Satellite Launch Center, People's Republic of China

...

Latest news about this satellite

There are no fresh news available about this satellite. Check back as we update our databases every day.


Newsletter sign-up

Weekly statistics, charts and insights to help you stay on top of the space industry.